Regional Weather Roundup
Issued by NWS Northern Indiana

Home | Current Version | Previous Version | Text Only | Print | Product List | Glossary Off
Versions: 1 2 3 4 5 6 7 8 9 10 11 12 13 14 15 16 17 18 19 20 21 22 23 24 25 26 27 28 29 30 31 32 33 34 35 36 37 38 39 40 41 42 43 44 45 46 47 48 49 50

000
ASUS43 KIWX 260510
RWRIWX

KIWX WEATHER ROUNDUP
NATIONAL WEATHER SERVICE NORTHERN INDIANA
1200 AM EST FRI DEC 26 2014

NOTE: "FAIR" INDICATES FEW OR NO CLOUDS BELOW 12,000 FEET WITH NO
SIGNIFICANT WEATHER AND/OR OBSTRUCTIONS TO VISIBILITY.

* THESE STATIONS ARE NOT UNDER NWS QUALITY CONTROL. THEY ALSO MAY NOT
  REPORT WEATHER SUCH AS PRECIPITATION OR FOG.

INZ001>027-260600-
NORTHERN INDIANA

CITY           SKY/WX    TMP DP  RH WIND       PRES   REMARKS
GARY*          MOCLDY    40  31  70 S9G18     30.05S
VALPARAISO     CLOUDY    35  31  85 S9        30.06R WCI  28
MICHIGAN CITY* CLOUDY    36  30  80 S12G18    30.05S
LAPORTE*       CLOUDY    38  34  86 S8        30.07R
KNOX*          MOCLDY    36  29  75 S12       30.08R
SOUTH BEND     CLOUDY    38  32  79 S14       30.08R
GOSHEN         MOCLDY    36  31  82 S12       30.08R
MONTICELLO*    FAIR      37  32  83 S6        30.08R
LOGANSPORT*    PTCLDY    34  30  86 S9        30.10R WCI  26
ROCHESTER*     PTCLDY    37  34  87 S8        30.10R
WARSAW*        PTCLDY    34  32  93 S5        30.09S WCI  30
ANGOLA*        CLEAR     34  30  86 S8        30.08F WCI  27
FORT WAYNE     MOCLDY    34  30  85 S10       30.11F WCI  26
HUNTINGTON*    PTCLDY    34  32  91 S7        30.10F WCI  28
PERU/GRISSOM   CLEAR     35  35 100 S7        30.09S WCI  29
MARION*        CLEAR     34  31  88 S10       30.12S WCI  26

$$
INZ028>050-260600-
CENTRAL INDIANA

CITY           SKY/WX    TMP DP  RH WIND       PRES   REMARKS
LAFAYETTE      PTCLDY    35  31  85 S8        30.09R WCI  29
KOKOMO*        CLEAR     34  30  86 S13       30.10S WCI  25
MUNCIE*        CLEAR     36  31  82 S13       30.11S
INDIANAPOLIS   CLEAR     31  29  92 SE9       30.11F WCI  23

$$
MIZ043>046-050>051-056>058-064>065-071>073-077>080-260600-
SOUTHWEST LOWER MICHIGAN

CITY           SKY/WX    TMP DP  RH WIND       PRES   REMARKS
BATTLE CREEK   MOCLDY    35  30  82 S10       30.07R WCI  27
BENTON HARBOR  CLOUDY    37  32  82 S10       30.05R
COLDWATER*     CLOUDY    35  31  84 MISG      30.07F
HILLSDALE*     MOCLDY    34  32  93 S9        30.07F WCI  27
HOLLAND        CLOUDY    37  31  78 S10       30.04R
GRAND RAPIDS   MOCLDY    34  30  85 S10       30.05R WCI  26
KALAMAZOO      MOCLDY    35  30  82 S12       30.07R WCI  27
STURGIS*       CLOUDY    34  30  86 S13       30.06F WCI  25
THREE RIVERS*  FAIR      35  31  88 S9        30.07S WCI  27

$$
OHZ001>008-015>018-024>025-260600-
NORTHWEST OHIO

CITY           SKY/WX    TMP DP  RH WIND       PRES   REMARKS
WAUSEON*       FAIR      34  32  93 S8        30.13S WCI  27
DEFIANCE       PTCLDY    35  31  85 S9        30.13F WCI  28
FINDLAY        CLEAR     33  29  85 S9        30.13F WCI  25
TOLEDO EXPRESS PTCLDY    32  29  88 S6        30.13S WCI  26
TOLEDO METCALF PTCLDY    33  28  81 S9        30.14S WCI  25
LIMA           CLEAR     35  30  82 S9        30.13F WCI  28

$$
AND FOR LAKE MICHIGAN COASTAL AND OPEN LAKE BUOY OBSERVATIONS

STATION/POSITION TEMP    WIND        PRES    VSBY  WAVE
                 AIR SEA DIR/SP/G                  HT/PER
                 (F)     (DEG/KT/KT) (MB)    (MI)  (FT/S)
CALUMET HARBOR    39     180/ 13/ 17 1015.7R
MICHIGAN CITY     38     150/ 15/ 19   N/A
SAINT JOSEPH      38     160/  4/ 12 1017.6S

$$
&&



USA.gov is the U.S. government's official web portal to all federal, state and local government web resources and services.